Flag Weather past 2 weeks in Longyearbyen, Svalbard, Norway

Now
37 °F

Drizzle. Partly sunny.


Feels Like: 29 °F
Forecast: 35 / 37 °F
Wind: 13 mph from Southwest

Location: Svalbard Lufthavn

Current Time: Nov 22, 2014 at 12:52:31 PM

Latest Report: Nov 22, 2014 at 11:50 AM


Visibility: N/A

Pressure: 29.86 "Hg

Humidity: 81%

Dew point: 32 °F

Location of LongyearbyenLocation

Historic Weather in Longyearbyen — Graph

°F

Longyearbyen temperature yesterday

Maximum temperature yesterday: 28 °F (at 6:50 PM)
Minimum temperature yesterday: 18 °F (at 12:50 AM)
Average temperature yesterday: 23 °F

Past Weeks' High & Low Weather Summary

 TemperatureHumidityPressure
High37 °F (Nov 15, 9:50 AM)93% (Nov 17, 10:50 AM)30.48 "Hg (Nov 17, 10:50 AM)
Low5 °F (Nov 11, 7:50 PM)53% (Nov 15, 11:50 PM)29.03 "Hg (Nov 8, 4:50 AM)
Average18 °F75%29.85 "Hg
* Reported Nov 7 10:20 AM — Nov 22 10:50 AM, Longyearbyen, Weather by CustomWeather, © 2014

Note: Actual official high and low records may vary slightly from our data, if they occured in-between our weather recording intervals... More about our weather records

Advertising

Longyearbyen weather history for previous 24 hours

 ConditionsComfort  
Time TempWeatherWind HumidityBarometerVisibility
10:50 AM
Nov 22
37 °FLight rain. Partly sunny.6 mph81%29.86 "HgN/A
9:50 AM32 °FPartly sunny.5 mph93%29.86 "HgN/A
8:50 AM30 °FBroken clouds.3 mph93%29.86 "HgN/A
7:50 AM30 °FBroken clouds.2 mph93%29.86 "HgN/A
6:50 AM28 °FPartly sunny.1 mph93%29.86 "HgN/A
5:50 AM28 °FLight snow. Passing clouds.2 mph93%29.86 "HgN/A
4:50 AM28 °FLight snow. Passing clouds.7 mph93%29.86 "Hg4 mi
3:50 AM28 °FLight snow. Passing clouds.8 mph93%29.89 "Hg4 mi
2:50 AM27 °FLight snow. Passing clouds.9 mph86%29.89 "Hg4 mi
1:50 AM27 °FLight snow. Passing clouds.10 mph86%29.89 "HgN/A
12:50 AM27 °FLight snow. Partly sunny.9 mph80%29.92 "HgN/A
11:50 PM
Nov 21
27 °FPassing clouds.9 mph80%29.92 "HgN/A
10:50 PM27 °FPassing clouds.8 mph74%29.92 "HgN/A
9:50 PM27 °FPassing clouds.6 mph69%29.92 "HgN/A
8:50 PM27 °FPassing clouds.8 mph69%29.89 "HgN/A
7:50 PM28 °FPassing clouds.12 mph64%29.89 "HgN/A
6:50 PM28 °FBroken clouds.10 mph69%29.86 "HgN/A
5:50 PM27 °FPartly sunny.15 mph74%29.86 "HgN/A
4:50 PM27 °FLight snow. Partly sunny.12 mph80%29.86 "HgN/A
3:50 PM23 °FLight snow. Broken clouds.3 mph86%29.83 "HgN/A
2:50 PM23 °FBroken clouds.7 mph86%29.83 "HgN/A
1:50 PM21 °FBroken clouds.12 mph86%29.80 "HgN/A
12:50 PM21 °FLight mixture of precip. Broken clouds.8 mph93%29.80 "Hg4 mi
Weather by CustomWeather, © 2014

See weather overviewHow to use our weather pages